Timeline UpdatesTrip UpdatesNews PostsPvt PostsTravel TipsAdmin PostsConv PostsFollowed PostsChat RequestsBlog PostsPNR Posts

Disclaimer
Search
 
 
Sun Apr 20, 2014 21:23:10 ISTHomeTrainsΣChainsAtlasPNRForumGalleryNewsFAQTripsMembersLoginFeedback
No Recent News for this Train
Other Trains in the News **new
Latest...
.
Tue Oct 29, 2013 (01:06PM)
⇐ Return Journey: Train# 18646

18645/East Coast Express

Feb 01 2014 (6:14PM)
Change Departure Station:
Change Arrival Station:
Post a Train Travel TipPost a Train Travel Tip **new
Post a Comment/Question/Picture/VideoPost a Comment/Question/Picture/Video
Inaugural Run
Fri May 16, 1975
Pantry/Catering
✕ NO Pantry Car
✓ Catering Avbl
Loco/Rake Reversals
VSKP/Visakhapatnam Junction (8); BZA/Vijayawada Junction (10);
RSA - Rake Sharing
18616/18615 Hatia-Howrah Express-18645/18646 Howrah-Hyderabad East Coast Express.; http://goo.gl/eoVrw
Rake/Coach Composition
HCPV-HCPV-SLR-GS-A1-B1-B2-B3-B4-S11-S10-S9-S8-S7-S6-S5-S4-S3-S2-S1-GS-SLR-ENG.; As seen at SRC by Sabyasachi on 12-12-2012.
Loco
Official Loco Links:- HWH - VSKP :- VSKP WAP-4 /...
Read more...
VSKP WAM-4 VSKP - BZA :- WAP-4/WAM-4 BZA - VSKP :- WAP-4/WAP-7
News    PNR    Forum    Time-Table    Availability    Fare Chart    Map    Arr/Dep History    Trips    Gallery    ΣChains    X/O    Timeline    
Travel Time: 30h 15m    56 halts    Distance: 1580 km    Avg Speed: 52 km/hr
Type: Mail/Express
Zone: SER/South Eastern
Departs @ 11:45 (Avg 5m late)
Platform# 22
SMTWTFS
Kolkata Howrah Junction/HWH 
Arrives @ 18:00 +1 night (Avg 18m late)
Platform# 5
SMTWTFS
Secunderabad Junction/SC 

56 halts. 266 intermediate Stations between Kolkata Howrah Junction and Secunderabad Junction

Show ALL intermediate Stations  Show Old Time-Table

#CodeStation NameX/OArrivesAvgDepartsAvgHaltPFDay#KmSpeedElevZoneAddress
1HWH»Kolkata Howrah Junction (23)»  -11:45+52210.06410mERHowrah 711101, West Bengal
2MCAMecheda (6)X  12:40+1512:42+212m--158.23510mSERdist - purba Medinipur, West Bengal
3PKUPanskura Junction (6)X  13:03+1213:04+151m--170.6629mSERPanskura, West Bengal
4KGPKharagpur Junction (10)X  13:47+1013:52+115m11115.07142mSERKharagpur, West Bengal
5BLDABelda  14:22+2114:23+221m--1150.57624mSERDistrict Paschim Medinipur, West Bengal
6JERJaleswar (4)  14:49+2214:50+231m--1183.66113mSERJaleswar, Odisha
7BTSBasta (3)  15:09+2415:10+271m--1203.14416mSERBasta, Odisha
8ROPRupsa Junction (5)XO  15:24+2315:25+241m--1213.35313mSERRupsa, Odisha
9BLSBalasore (4)  15:45+2315:50+225m--1231.18419mSERBalasore, Odisha
10SOROSoro  16:14+1916:15+201m--1264.66314mSERSoro, Odisha
11MKOMarkonaX  16:29+1116:30+121m--1279.32018mSERMarkuna, Odisha
12BHCBhadrak (4)  17:13+1217:15+142m--1293.69123mECoRBhadrak, Odisha
13BTVBaitarani Road  17:36+2017:37+201m--1325.45927mECoRBaitarani, Odisha
14KRIHKorai Halt  17:44+2117:45+211m--1332.34930mECoRJajapur, Odisha
15JJKRJajpur Keonjhar Road (4)  17:51+2117:52+221m--1337.27836mECoRJajpur, Odisha
16DNMDhanmandal (3)X  18:20+2418:21+251m--1373.76338mECoRDhanmanda, Odisha
17CTCCuttack (5)X  18:55+2919:00+325m31409.24328mECoRCuttack ph.no 0671-2610460, Odisha
18BRAGBarang  19:17+3219:18+331m--1421.43527mECoRDist - Cuttack, Odisha
19BBSBhubaneswar (4)X  19:45+3219:50+325m41437.13840mECoRBhubaneshwar ph.no. 0674-2532233, Odisha
20KURKhurda Road Junction (7)X  20:20+3020:35+2815m81456.07225mECoRKhordha, Odisha
21NKPNirakarpur  20:57+3020:58+301m--1482.57321mECoRNirakarpur, Odisha
22KAPGKalupara Ghat  21:12+3221:13+321m31499.47510mECoRChandeswar, Odisha
23BALUBalugaon (3)  21:35+3521:36+361m21527.15411mECoR752030, Odisha
24CLKAChilka  21:44+3521:45+361m--1534.36725mECoRBarkul, Odisha
25KITKhallikot (3)  21:54+3421:55+351m--1544.38013mECoRKhallikot, Odisha
26CAPChatrapurX  22:23+3622:24+371m--1581.78036mECoRChatrapur, Odisha
27BAMBrahmapur (3)O  22:40+3822:50+3410m21603.26427mECoRBerhampur, Odisha
28IPMIchchapuramX  23:13+3523:14+361m--1627.67721mECoRIchchapuram, Andhra Pradesh
29SPTSompeta (4)XO  23:28+2623:29+271m--1645.63948mECoRKanchili, Andhra Pradesh
30PSAPalasa (3)X  00:18+1300:20+132m--2677.56731mECoRKasibugga, Andhra Pradesh
31NWPNaupada Junction  00:43+2600:44+281m--2703.27913mECoRNuapada . ph.no. 08945-249728, Andhra Pradesh
32CHESrikakulam Road (4)  01:20+2601:22+272m--2750.57534mECoRsrikakulam road ph .no. 08942-287222, Andhra Pradesh
33CPPChipurupalleX  01:53+2301:54+251m--2789.15199mECoRCheepurupalli, Andhra Pradesh
34VZMVizianagaram Junction (5)  02:30+1902:35+205m--2820.07563mECoRVizianagaram ph.no 08922-225510, Andhra Pradesh
35KTVKottavalasa Junction (5)  03:03+2603:04+271m--2855.06458mECoRVizianagaram District, Andhra Pradesh
36SCMSimhachalam (2)  03:21+2003:22+211m--2873.02127mECoRVisakhapatnam, Andhra Pradesh
37VSKPVisakhapatnam Junction (8)X03:45+2004:05+1820m32881.23511mECoRVishakhapatnam 530001, Andhra Pradesh
38DVDDuvvada (4)X  04:33+1804:35+192m12897.55346mECoRVishakhapatnam District, Andhra Pradesh
39AKPAnakapalle (3)  04:53+2104:54+231m22913.57130mSCRAnakapalle ph.no . 08924-221698, Andhra Pradesh
40YLMElamanchili (2)X  05:14+2605:15+281m12937.28623mSCRVisakhapatnam District, Andhra Pradesh
41TUNITuni (2)  05:43+3805:44+391m12977.37124mSCRTuni ph.no. 08854-252172, Andhra Pradesh
42ANVAnnavaram (3)  05:58+4105:59+421m12993.97427mSCREast Godavari District, Andhra Pradesh
43PAPPithapuram (2)  06:19+4506:20+501m121018.75222mSCREast Godavari District, Andhra Pradesh
44SLOSamalkot Junction (3)  06:34+4806:35+501m321030.86318mSCRKakinada ph.no.0884-2328824, Andhra Pradesh
45DWPDwarapudi (3)07:04+4607:05+491m--21061.13220mSCREast Godavari District, Andhra Pradesh
46RJYRajahmundry (3)  07:42+4107:44+442m121081.05523mSCRRajahmundry ph.no. 0883-2420541, Andhra Pradesh
47NDDNidadavolu Junction (3)X  08:08+5308:09+541m221103.17120mSCRNidadavolu jtn ph.no. 08813-210325, Andhra Pradesh
48TDDTadepalligudem (3)  08:26+5408:27+551m321123.18718mSCRTadepalligudem, Andhra Pradesh
49EEEluru (3)  09:00+1:0009:01+1:011m321170.93019mSCREluru Ph.no. 08812 226401., Andhra Pradesh
50BZAVijayawada Junction (10)X11:00+2811:20+3520m121230.28624mSCRVijayawada 520001, Andhra Pradesh
51KMTKhammam (2)  12:30+5812:32+592m221330.666118mSCRKhammam 507001, Andhra Pradesh
52MABDMahbubabad (2)  13:15+1:0013:16+1:011m221378.169200mSCRMahbubabad, Andhra Pradesh
53WLWarangal (3)  14:08+1:0514:10+1:082m221438.220271mSCRWarangal., Andhra Pradesh
54KZJKazipet Junction (3)X  14:40+5714:42+1:002m321448.459292mSCRKazipet, Andhra Pradesh
55ZNJangaon (2)  15:31+1:0315:32+1:031m121496.339380mSCRRly Stn Rd. Jangaon, Andhra Pradesh
56ALERAler (2)  15:55+5315:56+531m221511.345366mSCRAleru, Andhra Pradesh
57BGBhongir (3)X  16:26+4816:27+481m121533.630455mSCRBhongir, Andhra Pradesh
58SC•Secunderabad Junction (10)•X  18:00+1818:05+195m521580.022539mSCRSecunderabad 500003, Andhra Pradesh
59HYBHyderabad Deccan Nampally (6)  18:30+19-521589.2-510mSCRHyderabad, Andhra Pradesh
Scroll to Top
Scroll to Bottom